Regional Weather Roundup
Issued by NWS Albany, NY

Home | Current Version | Previous Version | Text Only | Print | Product List | Glossary On
Versions: 1 2 3 4 5 6 7 8 9 10 11 12 13 14 15 16 17 18 19 20 21 22 23 24 25 26 27 28 29 30 31 32 33 34 35 36 37 38 39 40 41 42 43 44 45 46 47 48 49 50
000
ASUS41 KALY 060410
RWRALY

NEW YORK STATE HOURLY WEATHER ROUNDUP
NATIONAL WEATHER SERVICE ALBANY NY
1100 PM EST THU MAR 05 2015

NOTE: "FAIR" INDICATES FEW OR NO CLOUDS BELOW 12,000 FEET WITH NO
SIGNIFICANT WEATHER AND/OR NO OBSTRUCTIONS TO VISIBILITY.

NYZ032-033-038>043-046>054-057>066-NYZ062>081-060500-
EAST


CITY           SKY/WX    TMP DP  RH WIND       PRES   REMARKS
ALBANY         CLEAR     12  -4  48 NW9       30.41R WCI   0
GLENS FALLS    CLEAR      3  -7  63 CALM      30.40R
POUGHKEEPSIE   PTCLDY    19   1  45 NW10      30.37R WCI   7
NEWBURGH       PTCLDY    19   3  49 NW14      30.35R WCI   6
MONTGOMERY     PTCLDY    16   1  51 NW12      30.35R WCI   3
WHITE PLAINS   CLOUDY    19   4  51 NW16      30.30R WCI   4
ISLIP          CLOUDY    21   8  57 N21G26    30.29R WCI   5
NEW YORK CITY  CLOUDY    22   5  48 NW24G30   30.35R WCI   5
CENTRAL PARK   CLOUDY    20   4  50 NW6G20    30.36R WCI  12
$$

NYZ005>009-017-018-044>046-055-056-060500-
CENTRAL


CITY           SKY/WX    TMP DP  RH WIND       PRES   REMARKS
FULTON         MOCLDY    10   5  80 W9        30.43R WCI  -3
SYRACUSE       FLURRIES   7   4  87 W15       30.44R WCI -10
ROME           LGT SNOW   6   2  83 CALM      30.44R FOG
ELMIRA         CLEAR      5  -3  69 W8        30.43R WCI  -8
BINGHAMTON     CLEAR      5  -1  76 NW9       30.33R WCI  -9
MONTICELLO     MOCLDY     9   0  66 NW9       30.31R WCI  -5
$$

NYZ026>034-041>043-060500-
NORTH


CITY           SKY/WX    TMP DP  RH WIND       PRES   REMARKS
WATERTOWN      CLEAR      4  -5  66 SW8       30.43R WCI  -9
FORT DRUM      NOT AVBL
MASSENA        CLEAR     -9 -16  71 S3        30.42R
SARANAC LAKE   CLEAR    -19 -24  77 CALM      30.24R
PLATTSBURGH    CLEAR     -1 -10  65 SW5       30.39R WCI -11
$$

NYZ001>004-010>016-019>021-060500-
WEST


CITY           SKY/WX    TMP DP  RH WIND       PRES   REMARKS
NIAGARA FALLS  PTCLDY     5  -4  66 W12       30.48R WCI -11
BUFFALO        PTCLDY     7  -3  64 W9        30.48R WCI  -7
DUNKIRK        CLEAR      7   0  73 W6        30.51R WCI  -3
JAMESTOWN      CLOUDY     5  -2  72 W6        30.38R WCI  -6
WELLSVILLE     CLEAR      0  -7  72 W8        30.34R WCI -14
ROCHESTER      PTCLDY     8  -2  63 W8        30.47R WCI  -4
PENN YAN       CLEAR      7  -3  64 SW10      30.42R WCI  -8
$$

             KEY
       WCI = WIND CHILL INDEX
       VSB = VISIBILITY
       HX  = HEAT INDEX
$$



USA.gov is the U.S. government's official web portal to all federal, state and local government web resources and services.